[[{"header":{"parameterUnit":"m.s-1","parameterCategory":1,"la1":30.2992,"la2":30.254,"lo1":-89.0895,"lo2":-89.0443,"dy":0.0025,"dx":0.0025,"nx":19,"ny":19,"refTime":"2026-04-05T09:00:00:Z","depth":0,"parameterNumber":2,"parameterNumberName":"U-component_of_WINDS"},"data":[0,0,0,-2.6733,-2.6734,-2.6767,-2.6767,-2.6819,-2.6819,0,0,0,0,0,0,0,0,0,0,0,-2.6731,-2.6731,-2.6733,-2.6734,-2.6767,-2.6767,-2.6819,-2.6819,0,0,0,0,0,0,0,0,0,0,0,-2.673,-2.6731,-2.6732,-2.6734,-2.6767,-2.6767,-2.6819,-2.679,0,0,0,0,0,0,0,0,0,0,-2.6757,-2.6761,-2.6731,-2.6732,-2.6735,-2.6767,-2.6767,-2.6789,-2.6792,-2.6809,0,-2.6826,0,-2.6824,-2.6824,-2.6824,0,0,0,-2.6729,-2.6758,-2.6761,-2.6732,-2.6735,-2.6767,-2.6751,-2.679,-2.6794,-2.6813,-2.6827,-2.6828,-2.6825,-2.6824,-2.6824,-2.694,-2.6941,0,0,-2.6727,-2.674,-2.6758,-2.6764,-2.676,-2.675,-2.6752,-2.6793,-2.6808,-2.6827,-2.6829,-2.6825,-2.6824,-2.6825,-2.6939,-2.694,0,0,0,-2.6726,-2.6739,-2.674,-2.6762,-2.6767,-2.6751,-2.6753,-2.6806,-2.6805,-2.683,-2.6826,-2.6825,-2.6826,-2.6938,-2.6939,-2.6992,0,0,0,-2.6724,-2.6738,-2.674,-2.6748,-2.6767,-2.6787,-2.6766,-2.6802,-2.6807,-2.6826,-2.6825,-2.6826,-2.6937,-2.6939,-2.6988,-2.7014,0,0,0,-2.6726,-2.6738,-2.6745,-2.6749,-2.6763,-2.6786,-2.6788,-2.6803,-2.6805,-2.6824,-2.6826,-2.6937,-2.6939,-2.6985,-2.7009,-2.7049,0,0,0,-2.6732,-2.6791,-2.6746,-2.6811,-2.6763,-2.6818,-2.6787,-2.6827,-2.685,-2.6825,-2.6937,-2.6939,-2.6984,-2.7006,-2.7046,-2.7086,-2.7103,0,0,-2.6813,-2.6801,-2.6838,-2.6799,-2.6865,-2.6812,-2.6886,-2.6894,-2.6883,-2.6921,-2.6924,-2.6989,-2.7009,-2.7048,-2.7195,-2.7209,0,0,0,-2.6868,-2.6895,-2.691,-2.6932,-2.694,-2.6949,-2.6944,-2.6947,-2.6979,-2.6906,-2.7013,-2.7025,-2.7047,-2.7066,-2.7078,-2.7096,-2.6948,-2.6948,-2.6948,-2.7003,-2.6987,-2.7047,-2.7035,-2.7056,-2.7051,-2.7067,-2.707,-2.7047,-2.7073,-2.7085,-2.7175,-2.7197,-2.7206,-2.7226,-2.7103,-2.7103,-2.7104,-2.7104,-2.7122,-2.7158,-2.7126,-2.7173,-2.7155,-2.7193,-2.719,-2.7173,-2.7206,-2.7165,-2.7184,-2.7142,-2.7222,-2.7238,-2.7107,-2.7107,-2.7106,-2.7106,-2.7106,-2.721,-2.7225,-2.7227,-2.7257,-2.7283,-2.7267,-2.7301,-2.7283,-2.7266,-2.7285,-2.7296,-2.7295,-2.7293,-2.7291,-2.7292,-2.7292,-2.7292,-2.7292,-2.7293,-2.7301,-2.7302,-2.7333,-2.7346,-2.7357,-2.7371,-2.7365,-2.7376,-2.7384,-2.7368,-2.7368,-2.7343,-2.7232,-2.7206,-2.7298,-2.7297,-2.7296,-2.7296,-2.7295,-2.743,-2.7398,-2.7446,-2.7458,-2.7471,-2.7497,-2.7473,-2.7498,-2.7504,-2.7521,-2.7491,-2.7412,-2.7398,-2.7388,-2.7366,-2.7494,-2.7494,-2.7494,-2.7494,-2.7505,-2.7496,-2.7541,-2.7561,-2.7579,-2.7562,-2.7616,-2.7612,-2.7603,-2.7606,-2.7584,-2.7553,-2.7544,-2.7535,-2.7522,-2.7502,-2.7661,-2.7661,-2.7661,-2.7584,-2.7576,-2.7626,-2.7616,-2.7625,-2.7633,-2.7684,-2.7708,-2.7691,-2.7668,-2.7608,-2.7601,-2.755,-2.7534,-2.7511,-2.7491,-2.7453,0,0]},{"header":{"parameterUnit":"m.s-1","parameterCategory":1,"la1":30.2992,"la2":30.254,"lo1":-89.0895,"lo2":-89.0443,"dy":0.0025,"dx":0.0025,"nx":19,"ny":19,"refTime":"2026-04-05T09:00:00:Z","depth":0,"parameterNumber":3,"parameterNumberName":"V-component_of_WINDS"},"data":[0,0,0,-5.7687,-5.7688,-5.7776,-5.7776,-5.7886,-5.7887,0,0,0,0,0,0,0,0,0,0,0,-5.7663,-5.7664,-5.7686,-5.7689,-5.7776,-5.7776,-5.7886,-5.7887,0,0,0,0,0,0,0,0,0,0,0,-5.7663,-5.7664,-5.7665,-5.7689,-5.7776,-5.7776,-5.7886,-5.782,0,0,0,0,0,0,0,0,0,0,-5.7735,-5.7716,-5.7663,-5.7665,-5.769,-5.7776,-5.7776,-5.7816,-5.7824,-5.7847,0,-5.7871,0,-5.7881,-5.7895,-5.7895,0,0,0,-5.7686,-5.771,-5.7732,-5.7665,-5.769,-5.7775,-5.7736,-5.7821,-5.7829,-5.7857,-5.7873,-5.7877,-5.7883,-5.7896,-5.7896,-5.8048,-5.8049,0,0,-5.7681,-5.7679,-5.7726,-5.7738,-5.7728,-5.7733,-5.7738,-5.7826,-5.7841,-5.7873,-5.7879,-5.7885,-5.7896,-5.7897,-5.8047,-5.8048,0,0,0,-5.7669,-5.7676,-5.7695,-5.7733,-5.7749,-5.7735,-5.7742,-5.7838,-5.7844,-5.7881,-5.7886,-5.7897,-5.7898,-5.8046,-5.8048,-5.8089,0,0,0,-5.7666,-5.7669,-5.7693,-5.7693,-5.7748,-5.7795,-5.7752,-5.7838,-5.7848,-5.7886,-5.7897,-5.7899,-5.8045,-5.8047,-5.8086,-5.8108,0,0,0,-5.7656,-5.7667,-5.7681,-5.7693,-5.7731,-5.7794,-5.7806,-5.7841,-5.7852,-5.7895,-5.79,-5.8045,-5.8047,-5.8083,-5.8104,-5.8149,0,0,0,-5.7644,-5.7714,-5.7682,-5.7762,-5.773,-5.782,-5.7805,-5.7871,-5.7913,-5.7898,-5.8045,-5.8047,-5.8082,-5.8101,-5.8146,-5.8187,-5.8204,0,0,-5.7731,-5.7725,-5.7772,-5.7746,-5.7842,-5.7806,-5.7907,-5.7945,-5.7949,-5.8014,-5.8018,-5.8087,-5.8103,-5.8148,-5.8298,-5.8312,0,0,0,-5.7799,-5.7833,-5.7859,-5.7901,-5.7934,-5.7964,-5.7988,-5.8003,-5.8058,-5.7983,-5.8115,-5.8125,-5.8151,-5.817,-5.8182,-5.8205,-5.8056,-5.8056,-5.8056,-5.7918,-5.7923,-5.8001,-5.8017,-5.8057,-5.8083,-5.8115,-5.8138,-5.8128,-5.8159,-5.8179,-5.827,-5.8293,-5.8301,-5.8325,-5.82,-5.82,-5.82,-5.82,-5.8046,-5.8095,-5.8084,-5.8156,-5.816,-5.8219,-5.8245,-5.8237,-5.8291,-5.8255,-5.8278,-5.8239,-5.8316,-5.8337,-5.8204,-5.8203,-5.8203,-5.8202,-5.8202,-5.8125,-5.8149,-5.8168,-5.8231,-5.8277,-5.8289,-5.8343,-5.8343,-5.8343,-5.8366,-5.8387,-5.8386,-5.8385,-5.8376,-5.8376,-5.8376,-5.8377,-5.8377,-5.8377,-5.8199,-5.8219,-5.8267,-5.831,-5.8338,-5.8374,-5.84,-5.8426,-5.8455,-5.845,-5.845,-5.8437,-5.8323,-5.8295,-5.8382,-5.8381,-5.8381,-5.838,-5.838,-5.8328,-5.83,-5.8373,-5.8402,-5.8452,-5.8499,-5.8499,-5.8552,-5.8573,-5.86,-5.8582,-5.8498,-5.849,-5.8481,-5.8457,-5.8581,-5.8581,-5.8581,-5.8581,-5.8395,-5.8392,-5.8468,-5.8513,-5.8557,-5.8565,-5.8646,-5.8667,-5.8683,-5.8696,-5.8678,-5.8647,-5.8638,-5.8635,-5.8623,-5.8601,-5.8759,-5.8759,-5.8759,-5.8475,-5.8477,-5.8547,-5.8567,-5.8606,-5.864,-5.8716,-5.8765,-5.8777,-5.8766,-5.8707,-5.8699,-5.8649,-5.8632,-5.8619,-5.86,-5.8559,0,0]}]]